Content
SEND FEEDBACK

Daily
Averages
Monthly
Summary
United States of America

LOUISVILLE, ALABAMA


Home > North America > United States > Alabama
Elevation: 47 feet     Latitude: 31 48N     Longitude: 085 33W

WEATHER
 
SELECT A DAY
Number of Records: 228,621;   Date Range: 1/1/95 - 10/1/14
 
SHARE

PRINT THIS DATA

[ ← Previous Day ]
WEATHER ALMANAC - JANUARY 3, 2013
[ Next Day → ]
[ °C ]   °F
Weather ElementAverageHighLow
Temperature44.2 °F48.2 °F (1:00 am)37.2 °F (11:55 pm)
Dewpoint41 °F42.8 °F (1:53 am)32 °F (11:55 pm)
Humidity88.6 %94 % (7:55 am)76 % (1:00 am)
Barometer30.23 in30.33 in (10:55 pm)30.16 in (3:20 am)
Wind Speed7 mph10.4 mph (2:29 am)
Weather ElementAverage
Visibility9.8 mi
Wind DirectionWNW (286.6 °)

Weather ElementTotal
Precipitation0.13 in
Heating Degree Days22.3 (Base 65)
Averaged from 67 records on January 3, 2013
WEATHER CONDITIONS BREAKOUT
WIND DIRECTION BREAKOUT
WEATHER BY HOUR - JANUARY 3, 2013
[ °C ]   °F
Local TimeTemperatureDewpointHumidityBarometerVisibilityWind DirectionWind SpeedGust SpeedPrecipitationEventsConditions
1:00 AM48.2 °F41.0 °F76 %30.17 in10.0 miNW (320°)8.1 mphRainLight Rain
1:53 AM46.4 °F42.8 °F87 %30.17 in10.0 miNNW (330°)9.2 mphOvercast
1:55 AM46.0 °F42.1 °F86 %30.17 in10.0 miNNW (330°)8.1 mph0.00 inOvercast
2:29 AM44.6 °F41.0 °F87 %30.17 in10.0 miNNW (340°)10.4 mphRainLight Rain
2:55 AM45.1 °F42.1 °F89 %30.17 in10.0 miNorth (350°)6.9 mph0.00 inRainLight Rain
3:20 AM44.6 °F42.8 °F93 %30.16 in10.0 miNorth (10°)5.8 mphMostly Cloudy
3:54 AM44.6 °F41.0 °F87 %30.18 in10.0 miNorth (350°)9.2 mphRainLight Rain
3:55 AM44.8 °F41.5 °F88 %30.18 in10.0 miNorth (350°)10.4 mph0.00 inRainLight Rain
4:45 AM44.6 °F41.0 °F87 %30.17 in10.0 miNorth (350°)9.2 mphRainLight Rain
4:47 AM44.6 °F41.0 °F87 %30.17 in10.0 miNorth (350°)10.4 mphRainLight Rain
4:55 AM43.7 °F41.4 °F91 %30.17 in10.0 miNorth (350°)8.1 mph0.01 inRainLight Rain
5:32 AM42.8 °F41.0 °F93 %30.19 in10.0 miNNW (340°)6.9 mphRainLight Rain
5:35 AM42.8 °F41.0 °F93 %30.19 in10.0 miNorth (360°)5.8 mphRainLight Rain
5:45 AM42.8 °F41.0 °F93 %30.20 in10.0 miNNW (330°)4.6 mphRainLight Rain
5:55 AM43.3 °F41.4 °F93 %30.20 in10.0 miNNW (330°)6.9 mph0.01 inRainLight Rain
6:18 AM42.8 °F41.0 °F93 %30.20 in10.0 miNNW (340°)6.9 mphRainLight Rain
6:55 AM43.3 °F41.4 °F93 %30.22 in8.0 miNNW (330°)3.5 mph0.01 inRainLight Rain
7:32 AM42.8 °F41.0 °F93 %30.23 in8.0 miNW (320°)4.6 mphRainLight Rain
7:55 AM43.3 °F41.7 °F94 %30.22 in10.0 miNorth (350°)6.9 mph0.02 inRainLight Rain
7:56 AM42.8 °F41.0 °F93 %30.22 in10.0 miNorth (350°)6.9 mphRainLight Rain
8:13 AM42.8 °F41.0 °F93 %30.22 in10.0 miNorth (10°)5.8 mphRainLight Rain
8:55 AM43.5 °F41.7 °F93 %30.26 in9.0 miNNW (330°)6.9 mph0.01 inRainLight Rain
9:09 AM42.8 °F41.0 °F93 %30.26 in7.0 miNNW (340°)6.9 mphRainRain
9:16 AM44.6 °F42.8 °F93 %30.26 in8.0 miCalmRainLight Rain
9:26 AM42.8 °F41.0 °F93 %30.26 in7.0 miNNW (340°)5.8 mphRainLight Rain
9:33 AM44.6 °F42.8 °F93 %30.26 in7.0 miVariable4.6 mphRainLight Rain
9:50 AM44.6 °F41.0 °F87 %30.27 in10.0 miNNW (330°)6.9 mphRainLight Rain
9:55 AM43.9 °F41.9 °F93 %30.27 in10.0 miNorth (360°)3.5 mph0.06 inRainLight Rain
9:56 AM44.6 °F41.0 °F87 %30.26 in10.0 miCalmRainLight Rain
10:07 AM44.6 °F42.8 °F93 %30.25 in10.0 miNNW (340°)6.9 mphRainLight Rain
10:14 AM44.6 °F42.8 °F93 %30.25 in10.0 miNorth (10°)6.9 mphRainLight Rain
10:18 AM44.6 °F42.8 °F93 %30.24 in10.0 miNorth (10°)5.8 mphRainLight Rain
10:36 AM44.6 °F42.8 °F93 %30.23 in10.0 miNE (50°)3.5 mphRainLight Rain
10:40 AM44.6 °F42.8 °F93 %30.23 in10.0 miNE (40°)5.8 mphRainLight Rain
10:41 AM44.6 °F42.8 °F93 %30.23 in10.0 miNE (50°)5.8 mphRainLight Rain
10:55 AM44.4 °F42.4 °F93 %30.25 in10.0 miNW (320°)8.1 mph0.01 inLight Drizzle
11:13 AM44.6 °F42.8 °F93 %30.25 in10.0 miNorth (350°)5.8 mphLight Drizzle
11:17 AM44.6 °F42.8 °F93 %30.24 in10.0 miNorth (350°)5.8 mphLight Drizzle
11:31 AM44.6 °F42.8 °F93 %30.23 in10.0 miNNW (330°)8.1 mphOvercast
11:42 AM44.6 °F41.0 °F87 %30.22 in10.0 miNNW (340°)10.4 mphOvercast
11:48 AM44.6 °F41.0 °F87 %30.22 in10.0 miNorth (360°)8.1 mphOvercast
11:49 AM44.6 °F41.0 °F87 %30.22 in10.0 miNorth (350°)8.1 mphOvercast
11:51 AM44.6 °F41.0 °F87 %30.22 in10.0 miNorth (360°)9.2 mphOvercast
11:55 AM45.1 °F41.9 °F88 %30.22 in10.0 miNorth (360°)8.1 mph0.00 inOvercast
11:56 AM44.6 °F42.8 °F93 %30.22 in10.0 miNorth (350°)6.9 mphOvercast
12:06 PM44.6 °F42.8 °F93 %30.22 in10.0 miNW (320°)9.2 mphOvercast
12:17 PM44.6 °F42.8 °F93 %30.21 in10.0 miNNW (330°)6.9 mphOvercast
12:29 PM46.4 °F42.8 °F87 %30.19 in10.0 miNNW (330°)9.2 mphMostly Cloudy
12:31 PM46.4 °F42.8 °F87 %30.20 in10.0 miNNW (340°)9.2 mphMostly Cloudy
12:34 PM46.4 °F42.8 °F87 %30.20 in10.0 miNNW (340°)9.2 mphMostly Cloudy
12:55 PM46.0 °F42.1 °F86 %30.21 in10.0 miNNW (330°)8.1 mphOvercast
1:55 PM45.9 °F41.5 °F85 %30.22 in10.0 miNNW (340°)9.2 mphOvercast
2:31 PM46.4 °F41.0 °F81 %30.22 in10.0 miNW (320°)6.9 mphOvercast
2:38 PM46.4 °F41.0 °F81 %30.21 in10.0 miNNW (330°)4.6 mphOvercast
2:55 PM46.0 °F41.2 °F83 %30.23 in10.0 miNNW (330°)5.8 mphOvercast
3:16 PM46.4 °F41.0 °F81 %30.23 in10.0 miNorth (350°)5.8 mphMostly Cloudy
3:31 PM46.4 °F41.0 °F81 %30.24 in10.0 miNNW (330°)9.2 mphMostly Cloudy
3:39 PM46.4 °F41.0 °F81 %30.24 in10.0 miNNW (330°)6.9 mphOvercast
3:55 PM46.0 °F40.5 °F81 %30.24 in10.0 miNorth (350°)9.2 mphOvercast
4:55 PM44.6 °F39.6 °F82 %30.26 in10.0 miNNW (340°)5.8 mphClear
5:55 PM42.8 °F39.0 °F86 %30.28 in10.0 miNW (320°)5.8 mphPartly Cloudy
6:55 PM42.3 °F38.5 °F86 %30.29 in10.0 miNorth (360°)4.6 mphClear
7:55 PM40.3 °F37.2 °F89 %30.31 in10.0 miNW (320°)5.8 mphClear
8:55 PM39.9 °F35.1 °F83 %30.31 in10.0 miNNW (340°)8.1 mphClear
9:55 PM39.2 °F33.3 °F79 %30.32 in10.0 miNNW (340°)10.4 mphClear
10:55 PM38.1 °F32.5 °F80 %30.33 in10.0 miVariable6.9 mphClear
11:55 PM37.2 °F32.0 °F81 %30.31 in10.0 miNorth (350°)6.9 mphClear
Hourly data recorded from KOZR, located miles away from Louisville, Alabama







STORIES FROM OUR PARTNERS